Regional Weather Roundup
Issued by NWS Northern Indiana

Home | Current Version | Previous Version | Graphics & Text | Print | Product List | Glossary Off
Versions: 1 2 3 4 5 6 7 8 9 10 11 12 13 14 15 16 17 18 19 20 21 22 23 24 25 26 27 28 29 30 31 32 33 34 35 36 37 38 39 40 41 42 43 44 45 46 47 48 49 50

000
ASUS43 KIWX 311810
RWRIWX

KIWX WEATHER ROUNDUP
NATIONAL WEATHER SERVICE NORTHERN INDIANA
100 PM EST SAT JAN 31 2015

NOTE: "FAIR" INDICATES FEW OR NO CLOUDS BELOW 12,000 FEET WITH NO
SIGNIFICANT WEATHER AND/OR OBSTRUCTIONS TO VISIBILITY.

* THESE STATIONS ARE NOT UNDER NWS QUALITY CONTROL. THEY ALSO MAY NOT
  REPORT WEATHER SUCH AS PRECIPITATION OR FOG.

INZ001>027-311900-
NORTHERN INDIANA

CITY           SKY/WX    TMP DP  RH WIND       PRES   REMARKS
GARY*          PTSUNNY   36  19  51 S9        30.23
VALPARAISO     CLOUDY    35  23  61 SW10      30.21F WCI  27
6HR MIN TEMP:  21; 6HR MAX TEMP:  35;

MICHIGAN CITY* MOSUNNY   37  18  44 SW8G16    30.21F
LAPORTE*       MOSUNNY   37  26  65 SW13      30.21F
6HR MIN TEMP:  23; 6HR MAX TEMP:  37;

KNOX*          CLOUDY    36  10  35 SW13      30.21F
SOUTH BEND     MOSUNNY   35  23  61 SW12      30.21F WCI  27
6HR MIN TEMP:  21; 6HR MAX TEMP:  35;

ELKHART*       MOSUNNY   36  19  51 SW8       30.21F
GOSHEN         MOSUNNY   34  23  64 SW15      30.21F WCI  24
6HR MIN TEMP:  20; 6HR MAX TEMP:  35;

MONTICELLO*    PTSUNNY   35  25  68 SW12      30.26F WCI  27
6HR MIN TEMP:  22; 6HR MAX TEMP:  35;

LOGANSPORT*    MOSUNNY   34  27  75 SW12      30.26F WCI  25
ROCHESTER*     PTSUNNY   37  28  70 SW10      30.24F
WARSAW*        SUNNY     36  23  60 SW7       30.23F
ANGOLA*        SUNNY     34  19  55 SW10      30.20F WCI  26
FORT WAYNE     PTSUNNY   34  24  67 SW14      30.25F WCI  25
6HR MIN TEMP:  20; 6HR MAX TEMP:  34;

HUNTINGTON*    SUNNY     35  19  52 SW8       30.25F WCI  29
6HR MIN TEMP:  20; 6HR MAX TEMP:  35;

PERU/GRISSOM   MOSUNNY   35  25  67 SW15      30.25F WCI  25
6HR MIN TEMP:  20; 6HR MAX TEMP:  35;

MARION*        SUNNY     35  24  65 W10       30.27F WCI  27
6HR MIN TEMP:  -2; 6HR MAX TEMP:  46;


$$
INZ028>050-311900-
CENTRAL INDIANA

CITY           SKY/WX    TMP DP  RH WIND       PRES   REMARKS
LAFAYETTE      PTSUNNY   36  24  62 SW13      30.27F
6HR MIN TEMP:  19; 6HR MAX TEMP:  36;

KOKOMO*        FAIR      36  27  69 SW14      30.26F
6HR MIN TEMP:  21; 6HR MAX TEMP:  36;

MUNCIE*        SUNNY     35  23  61 SW10      30.27F WCI  27
6HR MIN TEMP:  21; 6HR MAX TEMP:  35;

INDIANAPOLIS   CLOUDY    34  21  59 SW16      30.30F WCI  24
6HR MIN TEMP:  17; 6HR MAX TEMP:  34;


$$
MIZ043>046-050>051-056>058-064>065-071>073-077>080-311900-
SOUTHWEST LOWER MICHIGAN

CITY           SKY/WX    TMP DP  RH WIND       PRES   REMARKS
BATTLE CREEK   CLOUDY    32  20  61 SW13      30.18F WCI  22
6HR MIN TEMP:  15; 6HR MAX TEMP:  32;

BENTON HARBOR  MOSUNNY   34  23  64 SW16G23   30.20F WCI  24
6HR MIN TEMP:  19; 6HR MAX TEMP:  34;

COLDWATER*     CLOUDY    32  22  64 SW13      30.19F WCI  23
6HR MIN TEMP:  18; 6HR MAX TEMP:  33;

HILLSDALE*     PTSUNNY   33  20  59 W10       30.18F WCI  24
6HR MIN TEMP:  16; 6HR MAX TEMP:  33;

HOLLAND        CLOUDY    34  25  69 SW15      30.17F WCI  24
6HR MIN TEMP:  22; 6HR MAX TEMP:  34;

GRAND RAPIDS   PTSUNNY   32  24  72 SW13      30.17F WCI  22
6HR MIN TEMP:  20; 6HR MAX TEMP:  32;

KALAMAZOO      MOSUNNY   32  20  61 SW9       30.19F WCI  24
6HR MIN TEMP:  15; 6HR MAX TEMP:  32;

STURGIS*       MOSUNNY   32  23  69 CALM      30.19F
THREE RIVERS*  FAIR      33  22  64 S9        30.20F WCI  26
6HR MIN TEMP:  16; 6HR MAX TEMP:  33;


$$
OHZ001>008-015>018-024>025-311900-
NORTHWEST OHIO

CITY           SKY/WX    TMP DP  RH WIND       PRES   REMARKS
WAUSEON*       FAIR      32  23  69 SW13      30.22F WCI  22
DEFIANCE       SUNNY     33  22  63 SW12G21   30.24F WCI  24
6HR MIN TEMP:  17; 6HR MAX TEMP:  33;

FINDLAY        SUNNY     31  20  63 SW13      30.25F WCI  21
6HR MIN TEMP:  10; 6HR MAX TEMP:  31;

TOLEDO EXPRESS SUNNY     32  20  61 SW14G20   30.23F WCI  22
6HR MIN TEMP:  16; 6HR MAX TEMP:  32;

TOLEDO METCALF SUNNY     31  20  63 SW14G24   30.25F WCI  21
6HR MIN TEMP:  16; 6HR MAX TEMP:  31;

LIMA           SUNNY     32  21  64 SW16      30.26F WCI  21
6HR MIN TEMP:  17; 6HR MAX TEMP:  32;


$$
AND FOR LAKE MICHIGAN COASTAL AND OPEN LAKE BUOY OBSERVATIONS

STATION/POSITION TEMP    WIND        PRES    VSBY  WAVE
                 AIR SEA DIR/SP/G                  HT/PER
                 (F)     (DEG/KT/KT) (MB)    (MI)  (FT/S)
CALUMET HARBOR    36     220/  8/ 11   N/A
MICHIGAN CITY     35     190/ 12/ 15   N/A
SAINT JOSEPH      33     200/ 11/ 13 1022.4F

$$
&&


USA.gov is the U.S. government's official web portal to all federal, state and local government web resources and services.